Regional Weather Roundup
Issued by NWS State College, PA

Home | Current Version | Previous Version | Graphics & Text | Print | Product List | Glossary On
Versions: 1 2 3 4 5 6 7 8 9 10 11 12 13 14 15 16 17 18 19 20 21 22 23 24 25 26 27 28 29 30 31 32 33 34 35 36 37 38 39 40 41 42 43 44 45 46 47 48 49 50
000
ASUS41 KCTP 292203
RWRCTP

REGIONAL WEATHER ROUNDUP
NATIONAL WEATHER SERVICE STATE COLLEGE PA
600 PM EDT MON MAY 29 2017

Note: "fair" indicates few or no clouds below 12,000 feet with no
significant weather and/or obstructions to visibility.

* = STATION THAT DOES NOT REPORT PRECIPITATION /E.G. RAIN...SNOW...ETC/
    THUNDER OR FOG.

PAZ002>004-007>009-013>016-020>023-029>032-292300-
WESTERN PENNSYLVANIA

CITY           SKY/WX    TMP DP  RH WIND       PRES   REMARKS
ERIE           PTSUNNY   72  55  55 S13       29.88R
MEADVILLE      CLOUDY    70  51  51 SW9G22    29.92R
FRANKLIN*      CLOUDY    70  48  46 S7        29.94S
NEW CASTLE     LGT RAIN  74  52  46 VRB3      29.92S
BEAVER COUNTY  NOT AVBL
BUTLER*        MOSUNNY   75  50  41 SW13      29.93S
PITTSBURGH INT MOSUNNY   78  50  37 SW10      29.93F
PITTSBURGH     SUNNY     77  47  34 S8        29.93F
INDIANA*       SUNNY     75  52  43 W8        29.99S
LATROBE        MOSUNNY   77  48  36 W8        29.97S
WASHINGTON CO* SUNNY     75  54  46 SW7       29.96F
$$

PAZ004>006-010>012-017>019-024>028-033>037-041-042-045-046-049>053-292300-
CENTRAL PENNSYLVANIA

CITY           SKY/WX    TMP DP  RH WIND       PRES   REMARKS
BRADFORD       MOSUNNY   71  46  40 SW12G18   29.96S
DUBOIS         MOSUNNY   71  49  45 W10G18    29.95F
CLEARFIELD     MOSUNNY   75  49  39 SW9       29.96S
JOHNSTOWN      SUNNY     72  48  42 W8        30.00S
ALTOONA        MOSUNNY   76  50  40 NW9       29.98S
STATE COLLEGE  MOSUNNY   77  50  38 W10G18    29.95R
WILLIAMSPORT   PTSUNNY   74  64  71 S9        29.91R
SELINSGROVE    MOSUNNY   72  62  71 S8        29.94R
FT INDIANTOWN  CLOUDY    62  62 100 E3        29.99R
CAPITAL CITY   PTSUNNY   70  62  76 SE13      29.96R
HARRISBURG     CLOUDY    69  63  81 SE10      29.96R
YORK           MOSUNNY   72  66  81 E10       29.96R
$$

PAZ038>040-043-044-047-048-054-055-060>062-067>071-292300-
EASTERN PENNSYLVANIA

CITY           SKY/WX    TMP DP  RH WIND       PRES   REMARKS
SCRANTON       CLOUDY    62  57  83 S8        29.97R
MOUNT POCONO   FOG       53  53 100 SE7       30.01R VSB 3/4
ALLENTOWN      CLOUDY    61  56  83 SE7       30.01R
QUAKERTOWN*    CLOUDY    59  57  94 SE7       30.02S
READING        CLOUDY    64  61  90 SE5       29.99R
LANCASTER      CLOUDY    67  63  87 SE8       29.98R
COATESVILLE    CLOUDY    63  61  94 E6        30.02R
POTTSTOWN      CLOUDY    61  57  87 VRB3      30.02S
BLUE BELL      CLOUDY    59  55  88 E3        30.03R
DOYLESTOWN     CLOUDY    58  58 100 CALM      30.01S
WILLOW GROVE   NOT AVBL
NORTH PHILA    CLOUDY    62  57  83 E7        30.03S
PHILADELPHIA   CLOUDY    62  57  83 E9        30.02R
$$




USA.gov is the U.S. government's official web portal to all federal, state and local government web resources and services.